Regional Weather Roundup
Issued by NWS

Home | Current Version | Previous Version | Graphics & Text | Print | Product List | Glossary On
Versions: 1 2 3 4 5 6 7 8 9 10 11 12 13 14 15 16 17 18 19 20 21 22 23 24 25 26 27 28 29 30 31 32 33 34 35 36 37 38 39 40 41 42 43 44 45 46 47 48 49 50
366
ASUS44 KLIX 311405
RWRLA
LOUISIANA WEATHER ROUNDUP
NATIONAL WEATHER SERVICE NEW ORLEANS LA
900 AM CDT FRI OCT 31 2014

NOTE: "FAIR" INDICATES FEW OR NO CLOUDS BELOW 12,000 FEET WITH NO
      SIGNIFICANT WEATHER AND/OR OBSTRUCTIONS TO VISIBILITY.
      SKY/WX - SKY CONDITION AND SIGNIFICANT WEATHER.
      TMP - AIR TEMPERATURE.    DP   - DEWPOINT TEMPERATURE.
      RH  - RELATIVE HUMIDITY.  PRES - PRESSURE.
      HX  - HEAT INDEX.         WCI  - WIND CHILL INDEX.

*  THESE STATIONS ARE NOT NWS OR FAA STATIONS AND ARE NOT UNDER
   NWS QUALITY CONTROL.

LAZ040-048-061>063-065-066-069-311500-
SOUTHEAST LOUISIANA

CITY           SKY/WX    TMP DP  RH WIND       PRES   REMARKS
N.O. AUDUBON     N/A     66  57  72 MISG        N/A
N.O. INTL ARPT MOSUNNY   63  55  75 NW7       30.07R
N.O. LAKEFRONT SUNNY     68  50  52 NW10      30.07R
N.O. DOWNTOWN* FAIR      64  46  52 NW6       30.07S
SLIDELL        SUNNY     56  47  71 CALM      30.05S
BATON ROUGE    SUNNY     59  50  72 NW6       30.08R
BOOTHVILLE     SUNNY     68  52  56 NW9       30.06R
BELLE CHASSE   MOSUNNY   63  53  70 W3        30.06R
BOGALUSA*        N/A     53  47  80 CALM      30.06F
NEW ROADS*     FAIR      58  49  74 NW7       30.10R
GONZALES*      FAIR      60  51  73 NW6       30.08S
HAMMOND*       SUNNY     57  48  72 NW3       30.08S
HOUMA*         SUNNY     59  50  72 NW3       30.08R
PORT FOURCHON* SUNNY     68  54  60 N8        30.11R HAZE

$$

LAZ041-044-053-054-311500-
SOUTHWEST LOUISIANA

CITY           SKY/WX    TMP DP  RH WIND       PRES   REMARKS
LAKE CHARLES   SUNNY     62  53  72 NW6       30.12R
LAFAYETTE      SUNNY     62  48  60 NW13      30.10R
PATTERSON      SUNNY     61  54  77 CALM      30.11R
SALT POINT       N/A     63  52  67 VRB3      30.09R
NEW IBERIA     SUNNY     59  51  75 NW7       30.10R
CHENAULT AIRPK NOT AVBL

$$

LAZ027-028-311500-
CENTRAL LOUISIANA

CITY           SKY/WX    TMP DP  RH WIND       PRES   REMARKS
FORT POLK      NOT AVBL
ALEXANDRIA INT SUNNY     54  49  83 NW5       30.12R
ALEXANDRIA     SUNNY     59  46  62 VRB7      30.12R

$$

LAZ001-002-311500-
NORTHWEST LOUISIANA

CITY           SKY/WX    TMP DP  RH WIND       PRES   REMARKS
SHREVEPORT     SUNNY     58  47  66 N9        30.17R
BARKSDALE AFB  SUNNY     55  47  74 N8        30.18R
DTN SHREVEPORT SUNNY     56  45  66 N9        30.18R

$$

LAZ014-016-311500-
NORTHEAST LOUISIANA

CITY           SKY/WX    TMP DP  RH WIND       PRES   REMARKS
MONROE         SUNNY     57  46  66 N10       30.14R
TALLULAH       SUNNY     55  48  77 NW8       30.09R

$$




USA.gov is the U.S. government's official web portal to all federal, state and local government web resources and services.